Beckley, WV

8:23 PM EDT on October 23, 2017 (GMT -0400)
Raleigh County Memorial

Weather History for KBKW - December, 2012

Change the Weather History Date:

Monday, December 24, 2012

  Actual Average Record
Temperature  
Mean Temperature 39 °F 32 °F  
Max Temperature 45 °F 40 °F 67 °F (1964)
Min Temperature 32 °F 24 °F -11 °F (1983)
Degree Days  
Heating Degree Days 26 33  
Month to date heating degree days 524 721  
Since 1 July heating degree days 1778 1861  
Cooling Degree Days 0 0  
Month to date cooling degree days 0 0  
Year to date cooling degree days 761 557  
Moisture  
Dew Point 38 °F    
Average Humidity 83    
Maximum Humidity 96    
Minimum Humidity 70    
Precipitation  
Precipitation 0.17 in 0.10 in 1.10 in (1948)
Month to date precipitation 2.25 2.34  
Year to date precipitation 43.43 40.53  
Snow  
Snow 0.00 in - - ()
Month to date snowfall 7.7  
Since 1 September snowfall 30.6  
Snow Depth 1.00 in    
Sea Level Pressure  
Sea Level Pressure 29.88 in    
Wind  
Wind Speed 6 mph (South)    
Max Wind Speed 16 mph    
Max Gust Speed 22 mph    
Visibility 8 miles    
Events Rain    
T = Trace of Precipitation, MM = Missing Value Source: NWS Daily Summary

Daily Weather History Graph

Daily Weather History Graph

Search for Another Location

Airport or City:

Trip Planner

Search our weather history database for the weather conditions in past years. The results will help you decide how hot, cold, wet, or windy it might be!

Date:

Astronomy

Dec. 24, 2012 Rise Set
Actual Time 7:37 AM EST 5:10 PM EST
Civil Twilight 7:08 AM EST 5:40 PM EST
Nautical Twilight 6:35 AM EST 6:13 PM EST
Astronomical Twilight 6:03 AM EST 6:45 PM EST
Moon 2:36 PM EST 4:16 AM EST
Length of Visible Light 10h 31m
Length of Day
9h 33m
Waxing Gibbous, 88% of the Moon is Illuminated
Dec 24
Waxing Gibbous
Dec 28
Full
Jan 4
Last Quarter
Jan 11
New
Jan 18
First Quarter

Hourly Weather History & Observations

Time (EST) Temp. Windchill Dew Point Humidity Pressure Visibility Wind Dir Wind Speed Gust Speed Precip Events Conditions
12:51 AM 33.1 °F 30.0 °F 27.0 °F 78% 30.01 in 10.0 mi South 3.5 mph - N/A   Scattered Clouds
1:43 AM 37.4 °F 32.8 °F 33.8 °F 87% 29.94 in 10.0 mi South 5.8 mph - N/A   Mostly Cloudy
1:51 AM 37.9 °F 33.5 °F 34.0 °F 86% 29.98 in 10.0 mi SSW 5.8 mph - N/A   Mostly Cloudy
2:23 AM 39.2 °F 37.0 °F 35.6 °F 87% 29.94 in 10.0 mi South 3.5 mph - N/A   Overcast
2:51 AM 39.0 °F 36.8 °F 35.1 °F 86% 29.97 in 10.0 mi South 3.5 mph - N/A   Overcast
3:51 AM 39.0 °F 36.8 °F 35.1 °F 86% 29.97 in 10.0 mi South 3.5 mph - N/A   Overcast
4:51 AM 37.9 °F 35.5 °F 36.0 °F 93% 29.95 in 4.0 mi ESE 3.5 mph - N/A   Overcast
5:51 AM 39.0 °F 35.7 °F 37.0 °F 93% 29.94 in 9.0 mi SSE 4.6 mph - N/A   Overcast
6:51 AM 37.9 °F 32.1 °F 36.0 °F 93% 29.94 in 10.0 mi SSE 8.1 mph - N/A   Overcast
7:40 AM 37.4 °F 32.8 °F 35.6 °F 93% 29.87 in 9.0 mi SE 5.8 mph - N/A   Overcast
7:51 AM 37.9 °F 33.5 °F 36.0 °F 93% 29.92 in 5.0 mi SSE 5.8 mph - N/A   Overcast
8:44 AM 39.2 °F 33.0 °F 35.6 °F 87% 29.84 in 10.0 mi SE 9.2 mph 18.4 mph N/A   Overcast
8:51 AM 39.0 °F 32.8 °F 36.0 °F 89% 29.89 in 10.0 mi SE 9.2 mph 18.4 mph N/A   Overcast
9:51 AM 39.9 °F 32.9 °F 37.0 °F 89% 29.89 in 10.0 mi SSE 11.5 mph 20.7 mph N/A   Overcast
9:58 AM 39.2 °F 31.6 °F 37.4 °F 93% 29.85 in 10.0 mi SSE 12.7 mph - 0.00 in Rain Light Rain
10:17 AM 39.2 °F 31.6 °F 37.4 °F 93% 29.85 in 7.0 mi SSE 12.7 mph - 0.00 in Rain Light Rain
10:41 AM 39.2 °F 32.5 °F 37.4 °F 93% 29.83 in 4.0 mi SSE 10.4 mph - 0.02 in Rain Light Rain
10:51 AM 39.9 °F 32.5 °F 37.0 °F 89% 29.87 in 6.0 mi SSE 12.7 mph 20.7 mph 0.03 in Rain Light Rain
11:19 AM 39.2 °F 32.0 °F 37.4 °F 93% 29.82 in 5.0 mi SE 11.5 mph - 0.03 in Rain Rain
11:51 AM 39.9 °F 33.4 °F 37.9 °F 93% 29.84 in 9.0 mi SSE 10.4 mph 19.6 mph 0.09 in Rain Light Rain
12:07 PM 39.2 °F 35.9 °F 37.4 °F 93% 29.80 in 10.0 mi SSE 4.6 mph - 0.00 in Rain Light Rain
12:51 PM 42.1 °F 37.7 °F 39.0 °F 89% 29.82 in 10.0 mi SSE 6.9 mph - 0.02 in Rain Light Rain
1:51 PM 42.1 °F 37.7 °F 39.0 °F 89% 29.82 in 10.0 mi SSE 6.9 mph - 0.00 in   Overcast
2:51 PM 43.0 °F 39.5 °F 39.9 °F 89% 29.81 in 6.0 mi SSE 5.8 mph - 0.00 in Rain Light Rain
3:32 PM 44.6 °F - 42.8 °F 93% 29.78 in 4.0 mi Calm Calm - 0.01 in Rain Light Rain
3:51 PM 45.0 °F 41.8 °F 43.0 °F 93% 29.81 in 3.0 mi SW 5.8 mph - 0.02 in   Overcast
4:51 PM 45.0 °F 40.1 °F 43.0 °F 93% 29.82 in 10.0 mi WSW 9.2 mph - N/A   Overcast
5:51 PM 45.0 °F 41.8 °F 43.0 °F 93% 29.84 in 4.0 mi WSW 5.8 mph - N/A   Overcast
6:51 PM 44.1 °F 40.8 °F 43.0 °F 96% 29.86 in 8.0 mi WSW 5.8 mph - N/A   Overcast
7:51 PM 44.1 °F 39.5 °F 42.1 °F 93% 29.88 in 10.0 mi West 8.1 mph - 0.01 in Rain Light Rain
8:13 PM 44.6 °F 41.4 °F 42.8 °F 93% 29.85 in 10.0 mi WNW 5.8 mph - 0.00 in   Overcast
8:51 PM 44.1 °F 40.8 °F 41.0 °F 89% 29.90 in 10.0 mi WNW 5.8 mph - 0.00 in   Overcast
9:10 PM 42.8 °F 39.3 °F 41.0 °F 93% 29.87 in 10.0 mi West 5.8 mph - N/A   Overcast
9:51 PM 43.0 °F 40.3 °F 41.0 °F 93% 29.91 in 10.0 mi WNW 4.6 mph - N/A   Overcast
10:00 PM 42.8 °F 40.1 °F 41.0 °F 93% 29.89 in 10.0 mi West 4.6 mph - N/A   Overcast
10:51 PM 42.1 °F 39.2 °F 39.9 °F 92% 29.92 in 10.0 mi West 4.6 mph - N/A   Overcast
11:51 PM 42.1 °F 40.2 °F 39.0 °F 89% 29.94 in 10.0 mi WSW 3.5 mph - N/A   Overcast